Location: Peterborough
(44.3091°N, 78.3197°W)
Time: 01:49:52
(UTC-04:00)

SR - Pass Details

Date: 31 March 2023
Orbit: 581 x 867 km, 66.7° (Epoch: 02 June)

Event Time Altitude Azimuth Distance (km) Brightness Sun altitude
Rises 09:16:42 0° 339° (NNW) 2,812 ? 23.9°
Reaches altitude 10° 09:19:30 10° 358° (N) 1,922 ? 24.4°
Maximum altitude 09:22:33 19° 43° (NE) 1,464 ? 24.9°
Drops below altitude 10° 09:25:40 10° 89° (E) 1,978 ? 25.4°
Sets 09:28:35 0° 107° (ESE) 2,926 ? 25.9°
